EW6604 Weather Reports


time (UTC)temp
C
wind
direction
speed
KPH
gust
KPH
rain 1hr
cm
rain 24hr
cm
rain mn
cm
humidity
%
barometer
mb
20260504173213 23 73 16.1 24.1 0.00 0.00 0.00 62 1017.4
20260504172711 23 71 19.3 24.1 0.00 0.00 0.00 63 1017.4
20260504172215 23 80 16.1 24.1 0.00 0.00 0.00 61 1017.4
20260504171718 23 72 14.5 22.5 0.00 0.00 0.00 62 1017.3
20260504171222 23 54 14.5 22.5 0.00 0.00 0.00 60 1017.4
20260504170744 23 57 14.5 20.9 0.00 0.00 0.00 65 1017.5
20260504170226 23 59 14.5 20.9 0.00 0.00 0.00 62 1017.5
20260504150734 22 54 9.7 14.5 0.00 0.00 0.00 59 1018.3
20260504150214 22 62 11.3 20.9 0.00 0.00 0.00 62 1018.3
20260504141228 22 42 9.7 12.9 0.00 0.00 0.00 62 1018.1
20260504140715 22 43 9.7 17.7 0.00 0.00 0.00 61 1018.1
20260504140214 22 66 9.7 17.7 0.00 0.00 0.00 61 1018.0
20260504130738 21 60 11.3 17.7 0.00 0.00 0.00 76 1018.0
20260504130221 21 44 12.9 19.3 0.00 0.00 0.00 77 1018.0
20260504120217 19 44 12.9 19.3 0.00 0.00 0.00 84 1017.5
20260504110230 18 44 14.5 17.7 0.00 0.00 0.00 84 1016.9
20260504100215 18 37 14.5 19.3 0.00 0.00 0.00 83 1016.6
20260504081730 18 31 6.4 9.7 0.00 0.00 0.00 82 1017.0
20260504081217 18 44 4.8 9.7 0.00 0.00 0.00 82 1016.9
20260504080727 18 30 3.2 4.8 0.00 0.00 0.00 84 1016.9
20260504080228 18 64 0.0 6.4 0.00 0.00 0.00 83 1016.8
20260504070215 18 27 12.9 14.5 0.00 0.00 0.00 81 1016.9
20260504060230 18 35 8.0 11.3 0.00 0.00 0.00 81 1017.6
20260504050713 19 43 1.6 3.2 0.00 0.00 0.00 79 1018.0
20260504050237 19 52 1.6 3.2 0.00 0.00 0.00 79 1018.1
20260504045719 19 36 1.6 4.8 0.00 0.00 0.00 80 1018.0
20260504045223 19 36 3.2 4.8 0.00 0.00 0.00 79 1018.0
20260504044725 19 26 3.2 6.4 0.00 0.00 0.00 79 1018.0
20260504044226 20 25 3.2 6.4 0.00 0.00 0.00 79 1018.0
20260504043730 20 28 4.8 6.4 0.00 0.00 0.00 79 1018.1
20260504043214 20 42 4.8 6.4 0.00 0.00 0.00 78 1018.1
20260504042739 20 39 0.0 3.2 0.00 0.00 0.00 78 1018.1
20260504042219 20 53 3.2 4.8 0.00 0.00 0.00 78 1018.1
20260504041212 20 49 3.2 8.0 0.00 0.00 0.00 78 1018.0
20260504040719 20 44 4.8 9.7 0.00 0.00 0.00 78 1018.0
20260504040213 20 49 6.4 9.7 0.00 0.00 0.00 78 1018.0
20260504035715 20 56 4.8 9.7 0.00 0.00 0.00 78 1018.0
20260504035220 20 58 8.0 11.3 0.00 0.00 0.00 78 1017.9
20260504034744 20 63 8.0 11.3 0.00 0.00 0.00 78 1018.0
20260504034226 20 54 6.4 9.7 0.00 0.00 0.00 78 1018.0
20260504033730 20 49 8.0 9.7 0.00 0.00 0.00 79 1018.0
20260504033213 20 67 6.4 9.7 0.00 0.00 0.00 79 1018.1
20260504032716 20 51 8.0 11.3 0.00 0.00 0.00 79 1018.2
20260504032219 20 48 8.0 11.3 0.00 0.00 0.00 80 1018.0
20260504031721 20 45 9.7 11.3 0.00 0.00 0.00 79 1018.1
20260504031224 20 50 9.7 11.3 0.00 0.00 0.00 79 1018.0
20260504030725 20 40 8.0 11.3 0.00 0.00 0.00 78 1018.1
20260504030227 20 68 8.0 11.3 0.00 0.00 0.00 79 1018.1
20260504025730 20 46 9.7 11.3 0.00 0.00 0.00 78 1018.1
20260504025216 20 53 8.0 12.9 0.00 0.00 0.00 78 1018.2
20260504024720 20 44 11.3 12.9 0.00 0.00 0.00 77 1018.1
20260504024224 20 45 9.7 14.5 0.00 0.00 0.00 77 1018.1
20260504023729 20 46 11.3 14.5 0.00 0.00 0.00 78 1018.0
20260504023229 20 54 12.9 17.7 0.00 0.00 0.00 77 1017.9
20260504022729 20 55 12.9 17.7 0.00 0.00 0.00 77 1017.9
20260504022214 20 54 12.9 19.3 0.00 0.00 0.00 77 1017.8
20260504021718 20 52 14.5 19.3 0.00 0.00 0.00 78 1017.8
20260504021221 20 73 12.9 17.7 0.00 0.00 0.00 78 1017.7
20260504020748 20 52 14.5 17.7 0.00 0.00 0.00 77 1017.6
20260504020229 20 54 12.9 17.7 0.00 0.00 0.00 77 1017.7
20260504015732 20 44 12.9 17.7 0.00 0.00 0.00 77 1017.7
20260504015213 20 53 12.9 17.7 0.00 0.00 0.00 77 1017.5
20260504014717 20 62 12.9 16.1 0.00 0.00 0.00 77 1017.6
20260504014223 20 60 12.9 17.7 0.00 0.00 0.00 77 1017.6
20260504013727 20 47 12.9 17.7 0.00 0.00 0.00 77 1017.5
20260504013251 20 52 14.5 17.7 0.00 0.00 0.00 76 1017.5
20260504012714 20 57 11.3 16.1 0.00 0.00 0.00 76 1017.5
20260504012218 20 65 11.3 17.7 0.00 0.00 0.00 75 1017.5
20260504011719 20 66 11.3 17.7 0.00 0.00 0.00 75 1017.3
20260504011224 20 56 12.9 16.1 0.00 0.00 0.00 74 1017.3
20260504010728 20 53 11.3 16.1 0.00 0.00 0.00 74 1017.4
20260504010230 20 58 11.3 16.1 0.00 0.00 0.00 73 1017.3
20260504005713 20 53 12.9 16.1 0.00 0.05 0.00 74 1017.2
20260504005218 20 56 12.9 17.7 0.00 0.05 0.00 72 1017.2
20260504004719 20 49 12.9 17.7 0.00 0.05 0.00 73 1017.2
20260504004226 20 46 14.5 17.7 0.00 0.05 0.00 72 1017.2
20260504003710 20 53 12.9 17.7 0.00 0.05 0.00 71 1017.1
20260504003214 21 57 12.9 17.7 0.00 0.05 0.00 71 1017.2
20260504002716 21 47 12.9 17.7 0.00 0.05 0.00 69 1017.2
20260504002220 21 47 12.9 19.3 0.00 0.05 0.00 70 1017.2
20260504001723 21 45 11.3 19.3 0.00 0.05 0.00 71 1017.3
20260504001245 21 46 11.3 16.1 0.00 0.05 0.00 69 1017.3
20260504000735 21 47 12.9 17.7 0.00 0.05 0.00 68 1017.2
20260504000219 21 46 14.5 17.7 0.00 0.05 0.00 68 1017.1
20260503235721 21 52 14.5 17.7 0.00 0.05 0.00 69 1017.1
20260503235226 21 52 14.5 19.3 0.00 0.05 0.00 67 1017.1
20260503234728 21 50 16.1 20.9 0.00 0.05 0.00 70 1017.0
20260503234250 21 61 14.5 20.9 0.00 0.05 0.00 69 1016.9
20260503233714 21 47 16.1 22.5 0.00 0.05 0.00 66 1016.8
20260503233221 21 59 19.3 22.5 0.00 0.05 0.00 64 1016.8
20260503232725 21 61 17.7 22.5 0.00 0.05 0.00 66 1016.8
20260503232229 21 70 19.3 22.5 0.00 0.05 0.00 65 1016.8
20260503231713 21 51 16.1 22.5 0.00 0.05 0.00 65 1016.8
20260503231215 21 66 16.1 22.5 0.00 0.05 0.00 66 1016.7
20260503230730 22 65 16.1 19.3 0.00 0.05 0.00 66 1016.8
20260503230222 22 55 14.5 19.3 0.00 0.05 0.00 65 1016.8
20260503225743 22 45 14.5 20.9 0.00 0.05 0.00 67 1016.8
20260503225223 22 48 11.3 24.1 0.00 0.05 0.00 64 1016.8
20260503224746 22 63 17.7 24.1 0.00 0.05 0.00 65 1016.8
20260503224229 22 81 12.9 20.9 0.00 0.05 0.00 64 1016.9
20260503223712 22 80 14.5 20.9 0.00 0.05 0.00 63 1016.9
20260503223231 22 47 12.9 20.9 0.00 0.05 0.00 63 1016.8
20260503222714 22 53 14.5 20.9 0.00 0.05 0.00 62 1016.8
20260503222220 22 78 14.5 19.3 0.00 0.05 0.00 64 1016.7
20260503221722 22 77 14.5 19.3 0.00 0.05 0.00 62 1016.6
20260503221225 22 45 14.5 27.4 0.00 0.05 0.00 60 1016.7
20260503220727 22 59 14.5 27.4 0.00 0.05 0.00 67 1016.7
20260503220228 22 37 11.3 17.7 0.00 0.05 0.00 63 1016.7
20260503215729 22 50 12.9 17.7 0.00 0.05 0.00 63 1016.6
20260503215230 22 68 11.3 19.3 0.00 0.05 0.00 61 1016.6
20260503214712 22 53 14.5 19.3 0.00 0.05 0.00 60 1016.7
20260503214226 22 61 12.9 17.7 0.00 0.05 0.00 61 1016.6
20260503213719 22 48 16.1 17.7 0.00 0.05 0.00 63 1016.6
20260503213219 22 45 11.3 19.3 0.00 0.05 0.00 61 1016.5
20260503212726 22 54 12.9 20.9 0.00 0.05 0.00 60 1016.6
20260503212222 22 49 9.7 20.9 0.00 0.05 0.00 60 1016.5
20260503211722 22 38 12.9 20.9 0.00 0.05 0.00 60 1016.5
20260503211214 22 46 16.1 20.9 0.00 0.05 0.00 61 1016.7
20260503210715 22 47 11.3 20.9 0.00 0.05 0.00 60 1016.6
20260503210224 22 68 16.1 20.9 0.00 0.05 0.00 60 1016.7
20260503205725 22 64 14.5 22.5 0.00 0.05 0.00 59 1016.6
20260503205220 22 68 16.1 22.5 0.00 0.05 0.00 59 1016.6
20260503204722 22 47 16.1 24.1 0.00 0.05 0.00 62 1016.6
20260503204226 22 64 19.3 22.5 0.00 0.05 0.00 60 1016.7
20260503203725 22 49 16.1 20.9 0.00 0.05 0.00 60 1016.9
20260503203213 22 49 14.5 20.9 0.00 0.05 0.00 63 1016.9
20260503202734 22 53 11.3 22.5 0.00 0.05 0.00 62 1017.0
20260503202217 22 60 16.1 29.0 0.00 0.05 0.00 63 1016.9
20260503201720 22 75 20.9 29.0 0.00 0.05 0.00 67 1016.9
20260503201222 22 59 14.5 29.0 0.00 0.05 0.00 62 1016.7
20260503200726 22 86 16.1 22.5 0.00 0.05 0.00 63 1016.8
20260503200251 22 66 14.5 20.9 0.00 0.05 0.00 60 1016.9
20260503195712 22 79 14.5 19.3 0.00 0.15 0.00 60 1017.0
20260503195236 22 49 9.7 20.9 0.00 0.15 0.00 59 1017.1
20260503194719 22 61 12.9 20.9 0.00 0.15 0.00 59 1017.2
20260503194222 22 56 8.0 19.3 0.00 0.15 0.00 64 1017.2
20260503193726 22 73 12.9 24.1 0.00 0.15 0.00 63 1017.2
20260503193230 22 81 14.5 24.1 0.00 0.15 0.00 62 1017.3
20260503192751 22 72 9.7 19.3 0.00 0.15 0.00 58 1017.4
20260503192215 22 46 14.5 24.1 0.00 0.15 0.00 62 1017.6
20260503191717 22 75 17.7 24.1 0.00 0.15 0.00 63 1017.7
20260503191240 22 82 12.9 22.5 0.00 0.15 0.00 65 1017.7
20260503190723 22 66 17.7 25.7 0.00 0.15 0.00 65 1017.7
20260503190225 22 58 16.1 20.9 0.00 0.15 0.00 65 1017.9
20260503185728 22 73 12.9 20.9 0.00 0.36 0.00 63 1017.9
20260503185212 22 78 9.7 17.7 0.00 0.36 0.00 62 1017.9
20260503184716 21 55 11.3 20.9 0.00 0.36 0.00 62 1017.9
20260503184218 21 61 14.5 20.9 0.00 0.36 0.00 64 1018.1
20260503183740 21 73 12.9 22.5 0.00 0.36 0.00 64 1018.1
20260503183222 21 73 14.5 22.5 0.00 0.36 0.00 64 1018.1
20260503182747 21 85 9.7 25.7 0.00 0.36 0.00 65 1018.2
20260503182229 21 56 16.1 25.7 0.00 0.36 0.00 64 1018.2
20260503181713 21 81 12.9 17.7 0.00 0.36 0.00 68 1018.3
20260503180715 21 61 14.5 20.9 0.00 0.36 0.00 66 1018.4
20260503180215 21 80 8.0 17.7 0.00 0.36 0.00 66 1018.5
20260503175748 21 54 8.0 19.3 0.00 0.64 0.00 66 1018.5
20260503175221 21 68 11.3 22.5 0.00 0.64 0.00 67 1018.5
20260503174720 21 49 17.7 22.5 0.00 0.64 0.00 70 1018.6
20260503174230 21 54 14.5 22.5 0.00 0.64 0.00 68 1018.5
20260503173726 21 54 17.7 22.5 0.00 0.64 0.00 68 1018.6